Погода в Каргыджаке

Турция     36°27′54″N   32°09′18″E
темп.,
°C
ветер,
м/с
пор.,
м/с
влажн.,
%
обл.,
%
осадки,
мм/ч
давл.,
гПа
погр.,
м
16 апреля, пт
пт1600:00+13в114880 0.0 101711
03:00+13всв114227 0.0 101710
06:00+13всв1137100 0.0 101611
09:00+18ююз223263 0.0 1017336
12:00+19юз3238100 0.0 1018698
15:00+20юз32385 0.0 1017794
18:00+18зюз21445 0.0 1016324
21:00+15всв21515 0.0 101711
17 апреля, сб
сб1700:00+15всв113959 0.0 101711
03:00+15св2134100 0.0 101611
06:00+15всв333335 0.0 101614
09:00+20ююв113192 0.0 1017212
12:00+20з2240100 0.0 1021406
15:00+24св1131100 0.0 1015287
18:00+20ю0149100 0.0 1017132
21:00+18всв1149100 0.0 101811
18 апреля, вс
вс1800:00+18всв224490 0.0 101819
03:00+18всв3332100 0.0 101722
06:00+19св2233100 0.0 101816
09:00+24всв1232100 0.0 1018141
12:00+27юз322495 0.0 1018815
15:00+26юз222882 0.0 1017659
18:00+24ююз1141100 0.0 101772
21:00+21всв2233100 0.0 101712
19 апреля, пн
пн1900:00+21св2228100 0.0 101613
03:00+21св3231100 0.0 101418
06:00+22всв4330100 0.0 101235
09:00+25з1232100 0.0 1012109
12:00+27юз1529100 0.0 1011727
15:00+28юв2626100 0.0 1009857
18:00+23сз1147100 0.0 100921
21:00+16с2269100 0.0 101177
20 апреля, вт
вт2000:00+17всв2269100 0.0 101152
03:00+15ююз3388100 0.0 1011159
06:00+13юв3387100 0.0 101097
09:00+16ююв2338100 0.0 1011369
12:00+19ююз43583 0.0 10121003
15:00+18ююз426535 0.0 1012890
18:00+15ююз328174 0.1 1013516
21:00+13ю128632 0.1 1015141